Location: Wheeling
(40.0640°N, 80.7210°W)
Time: 12:45:59
(UTC-04:00)

Envisat - Visible Passes

Search period start: 23 July 2021 00:00
Search period end: 02 August 2021 00:00
Orbit: 764 x 766 km, 98.1° (Epoch: 22 July)

Date Brightness Start Highest point End Pass type
(mag) Time Alt. Az. Time Alt. Az. Time Alt. Az.
27 Jul 5.7 05:34:58 10° NE 05:38:26 18° E 05:41:52 10° SE visible
30 Jul 5.8 05:24:10 10° ENE 05:26:50 14° E 05:29:27 10° ESE visible
01 Aug 5.3 05:48:16 10° NE 05:52:25 25° E 05:56:34 10° SSE visible
